Flag for U.S.A. Weather past 2 weeks in Paterson, New Jersey, U.S.A.

Now
55 °F

Passing clouds.


Feels Like: 55 °F
Forecast: 56 / 76 °F
Wind: No wind

Location: Essex County Airport

Current Time: Sep 20, 2014 at 4:00:22 AM

Latest Report: Sep 20, 2014 at 2:53 AM


Visibility: 10 mi

Pressure: 30.34 "Hg

Humidity: 77%

Dew point: 48 °F

Location of PatersonLocation

Historic Weather in Paterson — Graph

°F

Paterson temperature yesterday

Maximum temperature yesterday: 65 °F (at 1:53 PM)
Minimum temperature yesterday: 50 °F (at 6:53 AM)
Average temperature yesterday: 58 °F

Past Weeks' High & Low Weather Summary

 TemperatureHumidityPressure
High91 °F (Sep 6, 2:53 PM)93% (Sep 13, 7:53 PM)30.39 "Hg (Sep 13, 7:53 PM)
Low46 °F (Sep 17, 6:53 AM)31% (Sep 17, 3:53 PM)29.83 "Hg (Sep 6, 3:53 PM)
Average65 °F68%30.13 "Hg
* Reported Sep 5 2:53 AM — Sep 20 2:53 AM, Paterson, Weather by CustomWeather, © 2014

Note: Actual official high and low records may vary slightly from our data, if they occured in-between our weather recording intervals... More about our weather records

Advertising

Paterson weather history for previous 24 hours

 ConditionsComfort  
Time TempWeatherWind HumidityBarometerVisibility
2:53 AM
Sep 20
55 °FPassing clouds.No wind77%30.34 "Hg10 mi
1:53 AM56 °FPassing clouds.No wind75%30.34 "Hg10 mi
12:53 AM56 °FClear.No wind72%30.35 "Hg10 mi
11:53 PM
Sep 19
58 °FOvercast.3 mph67%30.37 "Hg10 mi
10:53 PM58 °FPassing clouds.7 mph65%30.38 "Hg10 mi
9:53 PM59 °FOvercast.6 mph64%30.39 "Hg10 mi
8:53 PM59 °FOvercast.6 mph64%30.39 "Hg10 mi
7:53 PM61 °FOvercast.7 mph60%30.38 "Hg10 mi
6:53 PM62 °FScattered clouds.12 mph58%30.35 "Hg10 mi
5:53 PM63 °FOvercast.9 mph56%30.35 "Hg10 mi
4:53 PM64 °FPassing clouds.5 mph49%30.35 "Hg10 mi
3:53 PM65 °FSunny.10 mph47%30.36 "Hg10 mi
2:53 PM64 °FSunny.12 mph45%30.36 "Hg10 mi
1:53 PM65 °FSunny.7 mph44%30.36 "Hg10 mi
12:53 PM62 °FSunny.N/A44%30.36 "Hg10 mi
11:53 AM60 °FPassing clouds.5 mph46%30.36 "Hg10 mi
10:53 AM59 °FPassing clouds.12 mph46%30.37 "Hg10 mi
9:53 AM56 °FScattered clouds.12 mph60%30.36 "Hg10 mi
8:53 AM54 °FPassing clouds.10 mph69%30.34 "Hg10 mi
8:00 AM52 °FPassing clouds.6 mph72%30.30 "Hg10 mi
6:53 AM50 °FOvercast.5 mph77%30.29 "Hg10 mi
5:53 AM51 °FPassing clouds.6 mph77%30.26 "Hg10 mi
4:53 AM52 °FPassing clouds.3 mph80%30.23 "Hg10 mi
Weather by CustomWeather, © 2014

See weather overviewHow to use our weather pages